Weather History for Sheridan, WY

Change the Weather History Date:

Friday, July 12, 2013

  Actual Average Record
Temperature  
Mean Temperature 72 °F 70 °F  
Max Temperature 84 °F 87 °F 104 °F (2002)
Min Temperature 60 °F 53 °F 37 °F (1987)
Degree Days  
Heating Degree Days 0 1  
Month to date heating degree days 0 16  
Since 1 June heating degree days 120 165  
Since 1 July heating degree days 0 16  
Cooling Degree Days 7 6  
Month to date cooling degree days 91 57  
Year to date cooling degree days 147 107  
Since 1 June cooling degree days 139 103  
Growing Degree Days 25 (Base 50)    
Moisture  
Dew Point 52 °F    
Average Humidity 49    
Maximum Humidity 66    
Minimum Humidity 31    
Precipitation  
Precipitation 0.01 in 0.05 in 1.98 in (1952)
Month to date precipitation 0.37 0.48  
Year to date precipitation 9.88 8.63  
Sea Level Pressure  
Sea Level Pressure 29.82 in    
Wind  
Wind Speed 8 mph (SSE)    
Max Wind Speed 17 mph    
Max Gust Speed 23 mph    
Visibility 10 miles    
Events Rain    
T = Trace of Precipitation, MM = Missing Value Source: NWS Daily Summary

Daily Weather History Graph

Daily Weather History Graph

Search for Another Location

Airport:

Trip Planner

Search our weather history database for the weather conditions in past years. The results will help you decide how hot, cold, wet, or windy it might be!

Date:

Astronomy

Jul. 12, 2013 Rise Set
Actual Time 5:34 AM MDT 8:52 PM MDT
Civil Twilight 4:58 AM MDT 9:28 PM MDT
Nautical Twilight 4:11 AM MDT 10:15 PM MDT
Astronomical Twilight 3:12 AM MDT 11:13 PM MDT
Moon 10:06 AM MDT (7/12) 10:50 PM MDT (7/12)
Length of Visible Light 16h 30m
Length of Day
15h 18m
Waxing Crescent, 18% of the Moon is Illuminated
Jul 12
Waxing Crescent
Jul 15
First Quarter
Jul 22
Full
Jul 29
Last Quarter
Aug 6
New

Hourly Weather History & Observations

Time (MDT) Temp. Dew Point Humidity Pressure Visibility Wind Dir Wind Speed Gust Speed Precip Events Conditions
12:53 AM 75.0 °F 48.0 °F 38% 29.75 in 10.0 mi West 12.7 mph - N/A   Mostly Cloudy
1:53 AM 73.0 °F 48.0 °F 41% 29.75 in 10.0 mi WNW 8.1 mph - N/A   Clear
2:53 AM 71.1 °F 50.0 °F 47% 29.76 in 10.0 mi WNW 5.8 mph - N/A   Clear
3:53 AM 70.0 °F 50.0 °F 49% 29.77 in 10.0 mi WNW 12.7 mph - N/A   Mostly Cloudy
4:53 AM 69.1 °F 52.0 °F 54% 29.78 in 10.0 mi ENE 4.6 mph - N/A   Overcast
5:53 AM 66.0 °F 54.0 °F 65% 29.81 in 10.0 mi South 5.8 mph - 0.01 in Rain Light Rain
6:53 AM 66.0 °F 55.9 °F 70% 29.83 in 10.0 mi South 3.5 mph - 0.00 in   Scattered Clouds
7:53 AM 71.1 °F 55.0 °F 57% 29.83 in 10.0 mi Calm Calm - N/A   Mostly Cloudy
8:53 AM 71.1 °F 55.0 °F 57% 29.84 in 10.0 mi Variable 3.5 mph - N/A   Overcast
9:53 AM 71.1 °F 51.1 °F 49% 29.86 in 10.0 mi NW 4.6 mph - N/A   Overcast
10:53 AM 70.0 °F 57.0 °F 63% 29.87 in 10.0 mi South 5.8 mph - 0.00 in   Overcast
11:53 AM 73.0 °F 53.1 °F 49% 29.88 in 10.0 mi Calm Calm - N/A   Partly Cloudy
12:53 PM 75.0 °F 50.0 °F 41% 29.88 in 10.0 mi South 3.5 mph - N/A   Clear
1:53 PM 80.1 °F 48.9 °F 34% 29.86 in 10.0 mi SE 9.2 mph - N/A   Clear
2:53 PM 82.0 °F 48.9 °F 31% 29.84 in 10.0 mi East 10.4 mph - N/A   Clear
3:53 PM 82.9 °F 50.0 °F 32% 29.84 in 10.0 mi ESE 9.2 mph 16.1 mph N/A   Clear
4:53 PM 81.0 °F 51.1 °F 35% 29.83 in 10.0 mi ESE 8.1 mph - N/A   Clear
5:53 PM 82.0 °F 51.1 °F 34% 29.81 in 10.0 mi SE 12.7 mph - N/A   Clear
6:53 PM 81.0 °F 48.9 °F 33% 29.81 in 10.0 mi ESE 13.8 mph 19.6 mph N/A   Clear
7:53 PM 77.0 °F 52.0 °F 42% 29.81 in 10.0 mi SE 9.2 mph - N/A   Clear
8:53 PM 75.0 °F 55.0 °F 50% 29.82 in 10.0 mi SSE 16.1 mph 21.9 mph N/A   Clear
9:53 PM 72.0 °F 55.0 °F 55% 29.83 in 10.0 mi SE 11.5 mph - N/A   Clear
10:53 PM 70.0 °F 53.1 °F 55% 29.84 in 10.0 mi SSE 11.5 mph 19.6 mph N/A   Clear
11:53 PM 69.1 °F 53.1 °F 57% 29.83 in 10.0 mi SSE 10.4 mph - N/A   Clear